Caribou, ME

1:51 PM EDT on September 20, 2017 (GMT -0400)
Caribou Municipal

Weather History for KCAR - December, 2012

Change the Weather History Date:

Sunday, December 2, 2012

  Actual Average Record
Temperature  
Mean Temperature 33 °F 24 °F  
Max Temperature 46 °F 31 °F 50 °F (1996)
Min Temperature 20 °F 17 °F -9 °F (1940)
Degree Days  
Heating Degree Days 32 41  
Month to date heating degree days 87 81  
Since 1 July heating degree days 1919 2226  
Cooling Degree Days 0 0  
Month to date cooling degree days 0 0  
Year to date cooling degree days 279 180  
Moisture  
Dew Point 29 °F    
Average Humidity 79    
Maximum Humidity 100    
Minimum Humidity 57    
Precipitation  
Precipitation 0.37 in 0.11 in 1.04 in (2005)
Month to date precipitation 0.37 0.23  
Year to date precipitation 35.91 35.45  
Snow  
Snow 1.30 in 0.60 in 2.80 in (1956)
Month to date snowfall 1.3 1.2  
Since 1 July snowfall 2.9 13.4  
Snow Depth 1.00 in    
Sea Level Pressure  
Sea Level Pressure 30.20 in    
Wind  
Wind Speed 11 mph (South)    
Max Wind Speed 18 mph    
Max Gust Speed 25 mph    
Visibility 5 miles    
Events Rain , Snow    
T = Trace of Precipitation, MM = Missing Value Source: NWS Daily Summary

Daily Weather History Graph

Daily Weather History Graph

Search for Another Location

Airport or City:

Trip Planner

Search our weather history database for the weather conditions in past years. The results will help you decide how hot, cold, wet, or windy it might be!

Date:

Astronomy

Dec. 02, 2012 Rise Set
Actual Time 6:58 AM EST 3:44 PM EST
Civil Twilight 6:23 AM EST 4:19 PM EST
Nautical Twilight 5:45 AM EST 4:57 PM EST
Astronomical Twilight 5:08 AM EST 5:34 PM EST
Moon 7:35 PM EST (12/2) 9:40 AM EST (12/2)
Length of Visible Light 9h 55m
Length of Day
8h 46m
Waning Gibbous, 86% of the Moon is Illuminated
Dec 2
Waning Gibbous
Dec 6
Last Quarter
Dec 13
New
Dec 20
First Quarter
Dec 28
Full

Hourly Weather History & Observations

Time (EST) Temp. Windchill Dew Point Humidity Pressure Visibility Wind Dir Wind Speed Gust Speed Precip Events Conditions
12:54 AM 21.0 °F 10.6 °F 9.0 °F 60% 30.53 in 10.0 mi South 9.2 mph - N/A   Overcast
1:54 AM 21.0 °F 9.9 °F 10.9 °F 65% 30.51 in 9.0 mi South 10.4 mph - 0.00 in   Overcast
2:39 AM 19.4 °F 7.9 °F 14.0 °F 80% 30.44 in 1.8 mi South 10.4 mph - 0.00 in Snow Light Snow
2:54 AM 19.9 °F 10.1 °F 16.0 °F 85% 30.48 in 2.0 mi South 8.1 mph - 0.00 in Snow Light Snow
3:09 AM 21.2 °F 11.7 °F 15.8 °F 80% 30.42 in 3.0 mi South 8.1 mph 17.3 mph 0.01 in Snow Light Snow
3:20 AM 21.2 °F 11.7 °F 15.8 °F 80% 30.42 in 2.5 mi South 8.1 mph 17.3 mph 0.01 in Snow Light Snow
3:34 AM 19.4 °F 9.5 °F 17.6 °F 93% 30.41 in 1.8 mi South 8.1 mph - 0.01 in Snow Light Snow
3:51 AM 21.2 °F 12.6 °F 17.6 °F 86% 30.40 in 2.5 mi South 6.9 mph - 0.02 in Snow Light Snow
3:54 AM 21.0 °F 11.4 °F 17.1 °F 85% 30.45 in 2.5 mi South 8.1 mph - 0.02 in Snow Light Snow
4:14 AM 21.2 °F 12.6 °F 17.6 °F 86% 30.39 in 1.8 mi South 6.9 mph - 0.00 in Snow Light Snow
4:23 AM 21.2 °F 11.7 °F 17.6 °F 86% 30.39 in 2.5 mi South 8.1 mph - 0.01 in Snow Light Snow
4:42 AM 21.2 °F 10.1 °F 17.6 °F 86% 30.38 in 1.8 mi South 10.4 mph - 0.01 in Snow Light Snow
4:51 AM 21.2 °F 12.6 °F 17.6 °F 86% 30.37 in 2.0 mi South 6.9 mph - 0.01 in Snow Light Snow
4:54 AM 21.9 °F 11.7 °F 18.0 °F 85% 30.42 in 1.8 mi South 9.2 mph - 0.02 in Snow Light Snow
5:19 AM 21.2 °F 11.7 °F 19.4 °F 93% 30.36 in 1.8 mi South 8.1 mph - 0.01 in Snow Light Snow
5:54 AM 24.1 °F 13.7 °F 19.9 °F 84% 30.40 in 1.8 mi South 10.4 mph - 0.02 in Snow Light Snow
6:07 AM 24.8 °F 14.6 °F 21.2 °F 86% 30.34 in 1.2 mi South 10.4 mph - 0.01 in Snow Light Snow
6:16 AM 24.8 °F 14.0 °F 21.2 °F 86% 30.34 in 1.8 mi South 11.5 mph - 0.02 in Snow Light Snow
6:37 AM 24.8 °F 15.3 °F 21.2 °F 86% 30.33 in 1.5 mi South 9.2 mph - 0.02 in Snow Light Snow
6:54 AM 25.0 °F 16.3 °F 23.0 °F 92% 30.37 in 1.8 mi South 8.1 mph - 0.03 in Snow Light Snow
7:21 AM 26.6 °F 16.2 °F 24.8 °F 93% 30.32 in 0.8 mi South 11.5 mph 18.4 mph 0.01 in Snow Light Snow
7:49 AM 26.6 °F 15.7 °F 24.8 °F 93% 30.31 in 1.2 mi South 12.7 mph - 0.03 in Snow Light Snow
7:54 AM 27.0 °F 17.3 °F 24.1 °F 89% 30.35 in 1.5 mi South 10.4 mph - 0.03 in Snow Light Snow
8:05 AM 28.4 °F 19.7 °F 24.8 °F 86% 30.30 in 2.5 mi South 9.2 mph - 0.01 in Snow Light Snow
8:16 AM 28.4 °F 19.1 °F 24.8 °F 86% 30.30 in 4.0 mi South 10.4 mph - 0.01 in Snow Light Snow
8:28 AM 28.4 °F 19.1 °F 26.6 °F 93% 30.29 in 4.0 mi South 10.4 mph - 0.01 in Snow Light Snow
8:54 AM 28.9 °F 19.2 °F 27.0 °F 92% 30.32 in 5.0 mi South 11.5 mph 17.3 mph 0.01 in Snow Light Snow
9:54 AM 30.9 °F 22.2 °F 28.9 °F 92% 30.30 in 10.0 mi South 10.4 mph - 0.01 in   Overcast
10:17 AM 32.0 °F 22.5 °F 30.2 °F 93% 30.24 in 8.0 mi South 12.7 mph 23.0 mph 0.00 in Snow Light Snow
10:34 AM 32.0 °F 23.6 °F 30.2 °F 93% 30.23 in 8.0 mi South 10.4 mph - 0.01 in Rain Light Freezing Rain
10:54 AM 32.0 °F 22.1 °F 30.9 °F 96% 30.25 in 7.0 mi South 13.8 mph - 0.01 in Rain Light Freezing Rain
11:22 AM 33.8 °F 25.3 °F 30.2 °F 87% 30.19 in 3.0 mi South 11.5 mph - 0.01 in   Overcast
11:54 AM 34.0 °F 25.0 °F 32.0 °F 92% 30.20 in 4.0 mi South 12.7 mph 20.7 mph 0.01 in   Overcast
12:54 PM 35.1 °F 25.5 °F 33.1 °F 92% 30.16 in 4.0 mi South 15.0 mph 24.2 mph N/A   Overcast
1:41 PM 35.6 °F 27.1 °F 33.8 °F 93% 30.09 in 2.5 mi South 12.7 mph - 0.00 in   Overcast
1:54 PM 36.0 °F 27.5 °F 34.0 °F 93% 30.12 in 2.0 mi South 12.7 mph - 0.00 in   Overcast
2:54 PM 36.0 °F 28.0 °F 35.1 °F 97% 30.09 in 3.0 mi South 11.5 mph - N/A   Overcast
3:54 PM 37.9 °F 31.5 °F 37.0 °F 97% 30.05 in 5.0 mi South 9.2 mph - N/A   Overcast
4:54 PM 39.9 °F 33.4 °F 39.0 °F 97% 30.02 in 7.0 mi South 10.4 mph - 0.01 in Rain Light Rain
5:24 PM 41.0 °F 33.5 °F 39.2 °F 93% 29.96 in 10.0 mi South 13.8 mph 20.7 mph 0.00 in Rain Light Rain
5:54 PM 43.0 °F 36.4 °F 41.0 °F 93% 29.98 in 10.0 mi South 12.7 mph - 0.01 in Rain Light Rain
6:54 PM 44.1 °F 38.1 °F 42.1 °F 93% 29.96 in 8.0 mi South 11.5 mph 18.4 mph 0.01 in Rain Light Rain
7:07 PM 44.6 °F 37.8 °F 42.8 °F 93% 29.92 in 8.0 mi South 15.0 mph 23.0 mph 0.00 in Rain Light Rain
7:54 PM 45.0 °F 38.2 °F 42.1 °F 90% 29.93 in 6.0 mi South 15.0 mph 25.3 mph 0.04 in Rain Light Rain
8:44 PM 44.6 °F 40.2 °F 42.8 °F 93% 29.87 in 5.0 mi South 8.1 mph - 0.03 in Rain Light Rain
8:51 PM 44.6 °F 40.2 °F 42.8 °F 93% 29.87 in 4.0 mi South 8.1 mph - 0.04 in Rain Light Rain
8:54 PM 44.1 °F 39.0 °F 42.1 °F 93% 29.89 in 4.0 mi South 9.2 mph - 0.05 in Rain Light Rain
9:23 PM 44.6 °F 41.4 °F 42.8 °F 93% 29.85 in 3.0 mi South 5.8 mph - 0.04 in Rain Light Rain
9:54 PM 46.0 °F 40.2 °F 43.0 °F 89% 29.86 in 9.0 mi SSW 12.7 mph 23.0 mph 0.04 in Rain Light Rain
10:44 PM 44.6 °F 40.2 °F 42.8 °F 93% 29.81 in 7.0 mi SSW 8.1 mph - 0.03 in Rain Light Rain
10:51 PM 44.6 °F 40.2 °F 42.8 °F 93% 29.81 in 8.0 mi SSW 8.1 mph - 0.03 in Rain Light Rain
10:54 PM 44.1 °F 39.0 °F 42.1 °F 93% 29.84 in 7.0 mi SSW 9.2 mph - 0.03 in Rain Light Rain
11:30 PM 44.6 °F 41.4 °F 42.8 °F 93% 29.80 in 8.0 mi SW 5.8 mph - 0.00 in Rain Light Rain
11:54 PM 43.0 °F 39.5 °F 42.1 °F 97% 29.82 in 7.0 mi SW 5.8 mph - 0.02 in Rain Light Rain